EW0868 Weather Reports


Display with metric or nautical units.
time (UTC)temp
F
wind
direction
speed
MPH
gust
MPH
rain 1hr
in
rain 24hr
in
rain mn
in
humidity
%
barometer
mb
20260503050032 0 215 0.0 0.0 0.00 0.00 0.00 1013.8
20260503044530 0 215 0.0 0.0 0.00 0.00 0.00 1013.6
20260503043041 0 215 0.0 0.0 0.00 0.00 0.00 1013.4
20260503041537 54 233 0.0 1.0 0.00 0.00 0.00 88 1013.3
20260503040046 54 360 0.0 0.0 0.00 0.00 0.00 87 1013.1
20260503034540 55 360 0.0 0.0 0.00 0.00 0.00 87 1012.9
20260503033038 55 219 0.0 6.0 0.00 0.00 0.00 87 1012.7
20260503031552 55 211 0.0 4.0 0.00 0.00 0.00 86 1012.7
20260503030037 56 215 0.0 0.0 0.00 0.00 0.00 1012.7
20260503024536 0 360 3.0 6.0 0.00 0.00 0.00 85 1012.5
20260503023029 0 360 0.0 7.0 0.00 0.00 0.00 1012.5
20260503021526 0 246 3.0 6.0 0.00 0.00 0.00 1012.4
20260503020035 0 218 2.0 5.0 0.00 0.00 0.00 100 1012.4
20260503014533 0 360 3.0 7.0 0.00 0.00 0.00 1012.4
20260503013106 0 246 0.0 7.0 0.00 0.00 0.00 1012.4
20260503011537 0 244 0.0 8.0 0.00 0.00 0.00 1012.4
20260503010050 158 360 5.0 9.0 0.00 0.00 0.00 1012.4
20260503004541 63 219 1.0 5.0 0.00 0.00 0.00 1012.4
20260503003039 63 227 1.0 5.0 0.00 0.00 0.00 80 1012.4
20260503001533 65 249 2.0 5.0 0.00 0.00 0.00 79 1012.5
20260503000044 64 242 1.0 5.0 0.00 0.00 0.00 80 1012.6
20260502234538 64 231 2.0 7.0 0.00 0.00 0.00 80 1012.8
20260502233033 65 202 2.0 8.0 0.00 0.00 0.00 79 1012.9
20260502231531 68 254 2.0 7.0 0.00 0.00 0.00 76 1013.1
20260502230039 67 217 1.0 5.0 0.00 0.00 0.00 78 1013.2
20260502224536 65 222 3.0 6.0 0.00 0.00 0.00 79 1013.4
20260502223031 66 193 2.0 6.0 0.00 0.00 0.00 78 1013.7
20260502221528 66 205 2.0 8.0 0.00 0.00 0.00 77 1013.9
20260502220037 66 211 1.0 6.0 0.00 0.00 0.00 78 1014.1
20260502214535 65 360 3.0 6.0 0.00 0.00 0.00 79 1014.3
20260502213027 66 215 3.0 5.0 0.00 0.00 0.00 78 1014.3
20260502211600 65 216 2.0 6.0 0.00 0.00 0.00 78 1014.4
20260502210031 66 213 2.0 6.0 0.00 0.00 0.00 75 1014.6
20260502204525 67 240 1.0 7.0 0.00 0.00 0.00 74 1014.7
20260502203044 68 219 1.0 11.0 0.00 0.00 0.00 73 1014.7
20260502201537 69 217 0.0 1.0 0.00 0.00 0.00 69 1014.9
20260502200105 68 360 0.0 5.0 0.00 0.00 0.00 71 1015.1
20260502194601 67 251 1.0 5.0 0.00 0.00 0.00 72 1015.2
20260502193032 66 251 2.0 5.0 0.00 0.00 0.00 72 1015.3
20260502191551 65 360 2.0 5.0 0.00 0.00 0.00 75 1015.4
20260502190036 64 45 0.0 1.0 0.00 0.00 0.00 75 1015.5
20260502184529 62 220 3.0 6.0 0.00 0.00 0.00 78 1015.8
20260502183027 60 247 0.0 4.0 0.00 0.00 0.00 80 1015.9
20260502181541 59 240 1.0 5.0 0.00 0.00 0.00 80 1016.1
20260502163031 52 120 0.0 0.0 0.00 0.00 0.00 89 1017.0
20260502161543 52 246 0.0 0.0 0.00 0.00 0.00 89 1017.0
20260502151601 51 246 0.0 0.0 0.00 0.00 0.00 89 1016.7
20260502123041 51 213 0.0 0.0 0.00 0.00 0.00 89 1016.5
20260502121539 51 210 0.0 0.0 0.00 0.00 0.00 88 1016.7
20260502114544 51 210 0.0 0.0 0.00 0.00 0.00 88 1016.9
20260502113037 51 200 0.0 0.0 0.00 0.00 0.00 88 1017.0
20260502111534 51 200 0.0 0.0 0.00 0.00 0.00 88 1017.0
20260502110043 51 200 0.0 0.0 0.00 0.00 0.00 88 1017.2
20260502104536 51 200 0.0 0.0 0.00 0.00 0.00 88 1017.2
20260502103033 51 200 0.0 0.0 0.00 0.00 0.00 88 1017.4
20260502101527 51 242 0.0 0.0 0.00 0.00 0.00 88 1017.2
20260502071534 52 201 0.0 0.0 0.00 0.00 0.00 87 1017.6
20260502070043 52 262 0.0 0.0 0.00 0.00 0.00 87 1017.5
20260502064535 52 258 0.0 3.0 0.00 0.00 0.00 86 1017.5
20260502063031 52 360 1.0 3.0 0.00 0.00 0.00 86 1017.4
20260502060035 52 226 0.0 3.0 0.00 0.00 0.00 86 1017.4
20260502054529 52 241 1.0 3.0 0.00 0.00 0.00 86 1017.4
20260502053027 53 261 0.0 2.0 0.00 0.00 0.00 86 1017.5
20260502051540 53 360 0.0 5.0 0.00 0.00 0.00 86 1017.5